[Iaude] MPEC V168: 2023 VL5 [a=2.99,e=0.68,i=4.2,H=23.9]

mpec at marsden.cfa.harvard.edu mpec at marsden.cfa.harvard.edu
Fri Nov 10 08:31:21 EST 2023


M.P.E.C. 2023-V168                            Issued 2023 November 10, 13:29 UT

     The Minor Planet Electronic Circulars contain information on unusual
         minor planets, routine data on comets and natural satellites,
         and occasional editorial announcements.  They are published
    on behalf of Division F of the International Astronomical Union by the
          Minor Planet Center, Smithsonian Astrophysical Observatory,
                          Cambridge, MA 02138, U.S.A.
			  
             Prepared using the Tamkin Foundation Computer Network

                              MPC at CFA.HARVARD.EDU
            URL https://www.minorplanetcenter.net/    ISSN 1523-6714

                                    2023 VL5                                    


Observations:
     K23V05L*1C2023 11 08.36075703 52 48.504-05 45 08.32         20.72GVEV168G96
     K23V05L 1C2023 11 08.36595803 52 49.645-05 45 22.43         21.31GVEV168G96
     K23V05L 1C2023 11 08.37115603 52 50.783-05 45 35.71         21.84GVEV168G96
     K23V05L 1C2023 11 08.37636503 52 51.949-05 45 49.72         21.66GVEV168G96
     K23V05L KC2023 11 08.42576803 53 02.710-05 48 00.50               VEV168V06
     K23V05L KC2023 11 08.42853003 53 03.290-05 48 07.80         20.84GVEV168V06
     K23V05L KC2023 11 08.43129303 53 03.900-05 48 15.10               VEV168V06
     K23V05L KC2023 11 08.43405803 53 04.550-05 48 22.50         21.48GVEV168V06
     K23V05L KC2023 11 09.32737403 56 42.400-06 28 56.24         21.70GVEV168I52
     K23V05L KC2023 11 09.33047003 56 43.033-06 29 05.60         21.03GVEV168I52
     K23V05L KC2023 11 09.33356003 56 43.739-06 29 13.78         21.46GVEV168I52
     K23V05L KC2023 11 09.33666403 56 44.459-06 29 22.85         21.62GVEV168I52
     K23V05L KC2023 11 10.29233004 00 50.972-07 14 54.13         20.81GVEV168I52
     K23V05L KC2023 11 10.29775204 00 52.340-07 15 09.14         21.00GVEV168I52
     K23V05L KC2023 11 10.30316204 00 53.680-07 15 25.42         21.37GVEV168I52
     K23V05L KC2023 11 10.30857704 00 55.019-07 15 41.26         22.20GVEV168I52

Observer details:
G96 Mt. Lemmon Survey.  Observer D. Rankin.  Measurers E. C. Beshore, D. Fay,
    J. B. Fazekas, D. C. Fuls, A. R. Gibbs, A. D. Grauer, H. Groeller, J. K.
    Hogan, R. A. Kowalski, S. M. Larson, G. J. Leonard, D. Rankin, R. L.
    Seaman, F. C. Shelly, K. W. Wierzchos.  1.5-m reflector + 10K CCD.
I52 Steward Observatory, Mt. Lemmon Station.  Observer H. Groeller.  Measurers
    E. C. Beshore, D. Fay, J. B. Fazekas, D. C. Fuls, A. R. Gibbs, A. D.
    Grauer, H. Groeller, J. K. Hogan, R. A. Kowalski, S. M. Larson, G. J.
    Leonard, D. Rankin, R. L. Seaman, F. C. Shelly, K. W. Wierzchos.  1.0-m
    prime focus + CCD.
V06 Catalina Sky Survey-Kuiper.  Observer H. Groeller.  Measurers E. C.
    Beshore, D. Fay, J. B. Fazekas, D. C. Fuls, A. R. Gibbs, A. D. Grauer, H.
    Groeller, J. K. Hogan, R. A. Kowalski, S. M. Larson, G. J. Leonard, D.
    Rankin, R. L. Seaman, F. C. Shelly, K. W. Wierzchos.  1.55-m reflector +
    1K CCD.

Orbital elements:
2023 VL5                                                 Earth MOID = 0.0411 AU
Epoch 2023 Sept. 13.0 TT = JDT 2460200.5                Veres                   
M 340.56362              (2000.0)            P               Q                  
n   0.19032151     Peri.  304.79317     -0.18808537     -0.98170077             
a   2.9932579      Node   155.99558     +0.92333837     -0.18707968             
e   0.6767563      Incl.    4.19959     +0.33476879     -0.03556394             
P   5.18           H   23.92          G   0.15           U   9                  
Residuals in seconds of arc
231108 G96  0.2-  0.1+    231108 V06  0.8-  0.1+    231110 I52  0.2-  0.6-
231108 G96  0.1-  0.3-    231108 V06  0.2-  0.1+    231110 I52  0.1+  0.4+
231108 G96  0.0   0.2+    231109 I52 (1.4+  0.7+)   231110 I52  0.1+  0.0
231108 G96  0.5+  0.0     231109 I52  0.2+  0.1-    231110 I52  0.0   0.1+
231108 V06  0.3-  0.1+    231109 I52  0.0   0.4+
231108 V06  0.8-  0.1+    231109 I52  0.0   0.0

Ephemeris:
2023 VL5                 a,e,i = 2.99, 0.68, 4                   q = 0.9676
Date    TT    R. A. (2000) Decl.     Delta      r    Elong.  Phase     V
2023 10 11    02 52 20.9 +05 46 47   0.4311  1.3961   152.8    19.1    23.8
...
2023 10 26    03 16 06.1 +01 29 14   0.2885  1.2666   158.2    17.0    22.6
...
2023 11 03    03 34 57.9 -02 16 51   0.2250  1.2020   156.6    19.2    22.1
...
2023 11 09    03 55 21.3 -06 13 20   0.1831  1.1564   152.6    23.2    21.6
2023 11 10    03 59 33.1 -07 00 10   0.1767  1.1491   151.7    24.1    21.6
2023 11 11    04 04 02.4 -07 49 29   0.1704  1.1419   150.7    25.1    21.5
...
2023 11 17    04 38 56.1 -13 44 23   0.1364  1.1008   142.9    32.8    21.2
...
2023 11 25    05 59 52.0 -24 13 36   0.1041  1.0526   126.6    48.9    20.9
...
2023 12 10    10 10 34.7 -31 56 32   0.1085  0.9885    88.8    84.9    22.0

M. P. C. Staff               (C) Copyright 2023 MPC           M.P.E.C. 2023-V168




More information about the Iaude mailing list